NOAA 17 DEB, 48741

Orbit data source: Space-Track

NOAA 17 DEB, 48741 is space debris in SSO originally from a launch on Mon, 24 Jun 2002 UTC launched from the Air Force Western Test Range (AFWTR). Debris objects in space refer to the collection of defunct objects orbiting the Earth. Examples of debris include non-operational satellites, rocket bodies, and fragments generated from explosions, collisions, or faulty payload assembly.

Loading next visibility...
Identifier
48741, 2002-032CA
Orbit
SSO
Country
Flag of USUS
Related business
Manufacturer
Unknown
Mission
Spacecraft
Bus & Motor
Unknown
Mass
Unknown
Launch date (UTC)
2002-06-24 (24 years ago)
Launch vehicle
Unknown
Launch site
Air Force Western Test Range (AFWTR)
Object type
Payload
Rocket body
Debris
Shape & HBR
Unknown shape, 0.1 m
Radar Cross Section
Small (<0.1 m²)

Expand to show TLE details & history
Last TLE update: 2 days ago

TLE from 2 days ago
0 NOAA 17 DEB
1 48741U 02032CA  26171.44865659  .00016982  00000-0  22574-2 0  9993
2 48741  98.6931 174.7703 0007992 127.4206 232.7731 14.79798693275811
Epoch: 2026-06-20T10:46Z
TLE epoch observation values (Epoch: 2026-06-20T10:46:03.929Z)
Latitude
-0.0001°
Longitude
104.59082°
Altitude
636.348 km
Speed
7.538 km/s
True Right ascension
11h 39m 04s
True Declination
0° 00' 00"
Sunlit
Object was in daylight at epoch
Visualization orbit readout
Latitude
Unknown
Longitude
Unknown
Altitude
Unknown
Speed
Unknown
Apparent Right ascension
Unknown
Apparent Declination
Unknown
Sunlit
N/A
Visualization observer readout
Local Sidereal Time
23:18:37
Azimuth
Unknown
Elevation
Unknown
Doppler factor
Unknown
Orbital elements
Apogee altitude
632.637 km
Perigee altitude
621.439 km
Semi-major axis
7,005.175 km
Eccentricity
0.0008
Inclination
98.6931°
RAAN
174.7703°
Arg. of periapsis
127.4206°
True anomaly
232.70022°
Mean anomaly
232.7731°
Eccentric anomaly
232.73666°
Mean motion
3.70181 °/min
Orbital period
97.25 mins
BSTAR
0.0022574
Loading maneuver chart data...
Computing Atmospheric mass density...

Documentation

Showing up to 5 results
|